User: anonymous   Login
Location: Utrecht
(52.0907°N, 5.1214°E)
Time: 04:26:42
(UTC+02:00)
Language:

DELFI C3 - Orbit

View from above orbital plane
View from above orbital plane
View from above satellite
View from above satellite

Ground track
Ground track

The orbit data is extracted from the following two-line orbital elements,

1 32789U 08021G   22176.61263222  .00008969  00000-0  49719-3 0  9997
2 32789  97.3383 202.6159 0008177 299.4447  60.5968 15.13983628773266
Epoch (UTC): 25 June 2022 14:42:11
Eccentricity: 0.0008177
inclination: 97.3383°
perigee height: 518 km
apogee height: 530 km
right ascension of ascending node: 202.6159°
argument of perigee: 299.4447°
revolutions per day: 15.13983628
mean anomaly at epoch: 60.5968°
orbit number at epoch: 77326

The dashed part of the orbit path shows where the satellite is in the earth's shadow,  

DLR